Location: Monte Arcuentu
(39.5833°N, 8.5500°E)
Time: 19:26:24
(UTC+00:00)

Daily predictions for brighter satellites

Satellite Brightness Start Highest point End
(mag) Time Altitude Azimuth Time Altitude Azimuth Time Altitude Azimuth
SJ-6B 3.1 19:23:37 10° S 19:27:40 75° W 19:31:40 10° NNW
BREEZE-M DEB (TANK) 2.7 19:27:13 10° WSW 19:29:28 57° NNW 19:32:32 10° NE
Meteor 2-20 Rocket 4.5 19:23:48 10° S 19:29:52 73° E 19:35:57 10° NNE
Cosmos 1674 2.8 19:27:51 10° S 19:31:28 54° E 19:35:04 10° NNE
Cosmos 2333 Rocket 2.4 19:27:34 10° S 19:33:08 53° ESE 19:38:41 10° NNE
Cosmos 1455 Rocket 3.6 19:29:02 10° N 19:33:18 44° ENE 19:37:33 10° SSE
ASTRO E2 4.1 19:31:57 10° WSW 19:35:08 23° S 19:38:19 10° SE
USA 186 3.6 19:32:43 10° SSW 19:35:24 30° W 19:38:14 10° NNW
X-37B 1.0 19:32:43 10° SW 19:35:42 41° SSE 19:38:43 10° ENE
Cosmos 1844 3.9 19:31:03 10° NNW 19:36:34 59° ENE 19:42:06 10° SE
Okean 1 Rocket 4.1 19:34:04 10° NNW 19:38:17 47° W 19:42:30 10° SSW
Cosmos 2360 Rocket 2.9 19:36:39 10° SW 19:42:11 59° WNW 19:47:46 10° NNE
Cosmos 1025 Rocket 3.5 19:38:27 10° SSE 19:42:34 42° E 19:46:41 10° NNE
Cosmos 2237 Rocket 3.8 19:40:09 10° SE 19:42:57 14° E 19:45:46 10° ENE
Cosmos 1331 Rocket 4.1 19:37:44 10° SSW 19:42:58 84° WNW 19:48:18 10° NNE
KORONAS-FOTON 3.7 19:40:13 10° S 19:43:59 82° E 19:47:46 10° N
USA 81 4.1 19:38:45 10° N 19:44:03 86° E 19:49:19 10° S
Cosmos 1850 Rocket 4.3 19:40:14 10° NNW 19:45:29 69° WSW 19:50:39 10° S
CZ-2C R/B 4.5 19:44:40 10° NNE 19:49:02 35° E 19:53:21 10° SSE
Cosmos 2322 Rocket 4.4 19:44:22 10° WSW 19:49:22 31° WNW 19:54:24 10° N
SL-4 R/B 2.1 19:46:38 10° SW 19:51:05 89° NNW 19:55:12 10° NE
Cosmos 1340 3.3 19:47:58 10° SSE 19:51:25 36° E 19:54:54 10° NNE
IRS-1A Rocket 4.5 19:45:42 10° SSE 19:51:32 80° WSW 19:57:19 10° NNW
ARIANE 5 R/B 4.2 19:56:01 12° ESE 19:59:02 22° ENE 20:02:28 10° NNE
Meteor 2-5 Rocket 4.4 19:54:32 10° SSE 19:59:29 35° E 20:04:32 10° NNE
Cosmos 1300 4.1 19:57:11 10° NNE 20:00:14 22° ENE 20:02:18 15° ESE
Cosmos 1536 Rocket 4.3 19:57:29 11° SSE 20:01:18 36° E 20:05:22 10° NNE
Cosmos 1626 2.0 19:57:39 10° S 20:01:19 73° E 20:05:00 10° NNE
Resurs 1-3 4.2 19:59:26 10° S 20:03:43 55° W 20:08:03 10° NNW
Lacrosse 5 rocket 4.3 20:02:22 10° WNW 20:04:24 14° NNW 20:06:24 10° N
Cosmos 2100 Rocket 4.0 19:58:59 10° N 20:05:22 81° E 20:11:37 10° S
Cosmos 2061 Rocket 4.5 20:00:01 10° N 20:06:11 47° ENE 20:11:16 15° SSE
Uosat 12 SS-18 rocket 4.0 20:02:05 10° SSW 20:06:21 85° ESE 20:11:12 10° NNE
Cosmos 1302 Rocket 4.0 20:02:18 10° SSW 20:07:33 80° ESE 20:12:49 10° NNE
MetOp-B 4.3 20:03:25 13° SSE 20:08:08 61° ENE 20:13:25 10° N
SL-14 R/B 3.5 20:04:45 10° S 20:08:40 54° E 20:12:35 10° NNE
Cosmos 1844 Rocket 3.2 20:05:14 10° NNW 20:10:49 60° WSW 20:16:22 10° S
Cosmos 2173 Rocket 4.0 20:05:14 10° N 20:11:39 85° E 20:17:59 10° S
GENESIS II 4.1 20:08:45 10° SSW 20:12:35 60° ESE 20:16:26 10° NE
Meteor 1-24 Rocket 4.2 20:11:13 15° SSE 20:15:13 38° E 20:20:16 10° NNE
BREEZE-M DEB (TANK) 2.7 20:13:53 10° W 20:16:06 41° NNW 20:19:19 10° NE
Cosmos 2016 Rocket 4.1 20:10:36 10° N 20:16:40 60° E 20:21:36 16° SSE
Meteor 2-11 Rocket 4.4 20:12:18 10° N 20:18:25 85° E 20:24:03 12° S
Meteor 1-16 Rocket 4.5 20:13:09 10° NNW 20:18:28 63° W 20:23:40 10° S
DNEPR-1 R/B 3.5 20:14:13 10° NNW 20:18:29 83° ENE 20:21:35 20° SE
Ariane Rocket 4.0 20:13:44 10° S 20:18:35 44° W 20:23:29 10° NNW
Terra 3.5 20:16:31 13° ESE 20:19:03 19° ENE 20:22:24 10° NNE
Cosmos 2322 4.2 20:14:09 10° SW 20:19:44 63° WNW 20:25:22 10° NNE
Cosmos 2278 Rocket 3.5 20:15:24 10° N 20:20:14 28° ENE 20:23:54 15° ESE
SPOT 1/Viking Rocket 3.6 20:16:23 17° SSE 20:20:22 65° ENE 20:25:28 10° N
ATLAS CENTAUR R/B 2.0 20:19:35 10° NW 20:23:58 59° WSW 20:27:14 18° SSE
COSMOS 2428 2.8 20:20:20 10° SSW 20:26:04 82° WNW 20:31:51 10° NNE
USA 245 4.3 20:24:40 19° SSE 20:28:36 71° ENE 20:34:39 10° N
Cosmos 968 Rocket 3.7 20:25:52 10° N 20:30:55 56° ENE 20:33:56 24° SE
Cosmos 1953 3.8 20:29:29 10° NNW 20:33:12 35° W 20:36:53 10° SSW
IGS 5A 4.4 20:29:55 11° S 20:33:39 45° W 20:37:40 10° NNW
Cosmos 1725 Rocket 4.0 20:27:57 10° N 20:34:09 72° E 20:38:36 20° SSE
ATLAS 3B R/B 3.8 20:30:53 10° WSW 20:37:07 45° NW 20:43:33 10° NNE
NOSS 0 Rocket 3.9 20:32:57 10° S 20:39:03 64° ESE 20:45:13 10° NNE
Cosmos 389 Rocket 3.6 20:41:46 10° NNE 20:44:48 28° ENE 20:45:18 27° E
SPOT 5 3.3 20:43:25 27° SE 20:45:52 50° ENE 20:50:30 10° N
BREEZE-M DEB (TANK) 4.1 20:25:40 10° SW 20:45:52 68° SE 20:50:32 10° ENE
Cosmos 1992 Rocket 3.9 20:41:33 12° S 20:46:21 74° ESE 20:51:36 10° NNE
SPOT 3 Rocket 4.5 20:46:18 13° SSW 20:50:41 44° W 20:55:39 10° NNW
Cosmos 1980 3.7 20:49:37 15° S 20:54:21 66° ESE 20:59:59 10° NNE
Cosmos 1486 Rocket 4.0 20:49:49 10° NNW 20:55:01 70° ENE 20:57:23 32° SE
Cosmos 2219 Rocket 3.8 20:54:01 10° SW 20:59:12 36° WNW 21:04:26 10° N
Resurs 01 Rocket 3.6 20:56:11 10° SSW 20:59:45 24° W 21:03:19 10° NW
ATLAS 2A CENTAUR R/B 3.6 20:47:51 10° WSW 21:00:30 29° SSW 21:02:14 26° SSE
Cosmos 1867 3.6 20:58:20 10° NNW 21:03:50 79° WSW 21:06:16 34° SSE
ERS-1 Rocket 2.9 21:03:38 34° SSE 21:05:51 81° ENE 21:10:55 10° N
SL-24 R/B 4.3 21:05:47 10° N 21:10:37 73° E 21:12:36 37° S
Cosmos 1606 Rocket 3.8 21:07:26 10° N 21:11:49 55° E 21:12:47 45° SE
X-37B 1.8 21:09:19 10° W 21:12:22 42° NNW 21:15:07 12° NE
USA 215 4.5 21:07:54 10° ENE 21:11:27 21° ESE 21:11:27 21° ESE
Cosmos 1354 Rocket 4.4 21:09:27 10° N 21:14:40 51° ENE 21:16:26 36° ESE
Cosmos 1346 Rocket 3.0 21:14:19 34° SSW 21:15:55 68° W 21:19:57 10° N
Cosmos 1892 Rocket 3.9 21:15:21 44° ESE 21:15:57 48° E 21:20:15 10° NNE
Geosat 4.3 21:14:16 36° ESE 21:16:06 57° ENE 21:21:02 10° NNW
Spot 2 Rocket 4.2 21:19:22 26° SSW 21:21:56 47° W 21:26:50 10° NNW
Cosmos 1455 2.8 21:19:05 10° N 21:22:38 40° ENE 21:22:38 40° ENE
Cosmos 2228 3.0 21:21:36 10° N 21:26:01 81° W 21:27:02 52° S
H-2A R/B 3.3 21:22:04 10° NNE 21:26:10 78° ESE 21:26:45 62° SSE
Cosmos 2237 Rocket 2.3 21:21:26 14° SSW 21:26:17 73° WNW 21:31:55 10° NNE
Cosmos 1703 4.4 21:27:14 30° ENE 21:27:14 30° ENE 21:30:14 10° NNE
SL-16 R/B 2.7 21:26:39 37° ESE 21:27:13 38° ESE 21:32:25 10° NE
Cosmos 2233 Rocket 4.4 21:29:11 10° NNW 21:35:13 58° W 21:38:24 28° SSW
ARIANE 5 R/B 3.9 21:33:34 26° SW 21:35:15 34° W 21:39:22 10° NNW
Cosmos 1607 3.9 21:30:02 10° NNW 21:36:27 89° WSW 21:38:39 44° SSE
DELTA 2 R/B (1) 3.6 21:36:14 10° SW 21:41:37 53° SSE 21:41:38 53° SSE
Meteor 2-10 Rocket 4.1 21:41:18 10° NNW 21:46:05 47° W 21:47:42 35° SW
Cosmos 1891 Rocket 4.5 21:42:20 10° N 21:48:35 73° E 21:50:30 47° SSE
Cosmos 1513 Rocket 4.4 21:43:24 10° N 21:49:31 71° E 21:51:15 48° SSE
Cosmos 2346 Rocket 4.4 21:51:42 49° SSE 21:53:17 68° E 21:59:27 10° NNE
ATLAS CENTAUR R/B 2.8 21:52:00 30° SW 21:54:15 81° NW 22:04:12 10° NE
Meteor 2-1 Rocket 4.2 21:49:07 10° N 21:54:40 70° E 21:55:49 54° SE
Cosmos 1503 Rocket 4.3 21:50:37 10° NNW 21:55:53 58° WSW 21:57:02 47° SSW
Terra 2.6 21:55:24 37° SW 21:56:27 43° W 22:01:00 10° NNW
NOSS 2-3 (C) 4.3 21:58:18 40° ENE 21:58:18 40° ENE 22:01:31 10° NE
Cosmos 2278 Rocket 2.9 21:59:09 10° NW 22:04:26 41° WSW 22:05:45 36° SW
Cosmos 1072 Rocket 4.4 21:59:15 10° N 22:05:38 86° W 22:07:23 51° S
Cosmos 1943 Rocket 2.9 22:06:15 10° N 22:11:28 41° ENE 22:12:41 36° E
Cosmos 2297 4.1 22:06:18 10° NNW 22:11:50 53° ENE 22:12:58 46° ESE
Cosmos 724 4.3 22:09:16 10° NNW 22:15:27 78° ENE 22:16:45 57° SE
Cosmos 1464 Rocket 4.3 22:24:47 10° NNW 22:31:03 59° W 22:32:40 46° SW
Cosmos 1812 Rocket 4.2 22:26:54 10° N 22:30:41 48° NE 22:30:41 48° NE
USA 229 DEB 3.4 22:30:08 56° SSW 22:31:35 80° ESE 22:38:19 10° NE
USA 229 3.4 22:30:17 57° SSW 22:31:41 79° ESE 22:38:25 10° NE
COBE Rocket 3.9 22:32:01 67° E 22:32:09 67° ENE 22:37:00 10° N
Cosmos 1777 Rocket 4.1 22:30:30 10° NNW 22:35:44 62° WSW 22:35:58 61° WSW
Cosmos 1943 4.2 22:36:58 32° E 22:36:58 32° E 22:41:19 10° NE
NOSS 3-1 (C) 3.7 22:35:28 33° WSW 22:37:43 57° NW 22:43:43 10° NNE
SJ 16-02 1.6 22:34:31 10° NNW 22:38:21 64° NNE 22:38:21 64° NNE
Cosmos 1634 Rocket 4.4 22:32:51 10° N 22:39:00 51° E 22:40:08 46° ESE
Cosmos 2058 Rocket 4.5 22:39:41 10° NNW 22:43:26 29° W 22:43:26 29° W
Meteor 1-11 4.0 22:47:14 75° SSW 22:47:43 86° W 22:53:20 10° N
X-37B 3.5 22:46:36 10° WNW 22:47:26 15° NW 22:47:26 15° NW
NOSS 2-3 (E) 4.4 22:49:23 42° WNW 22:49:49 44° NW 22:54:14 10° NNE
Cosmos 1603 4.2 22:50:39 45° E 22:50:39 45° E 22:55:40 10° NE
NOSS 3-1 (A) 3.1 22:50:44 65° WSW 22:51:31 79° NW 22:57:35 10° NNE
Aureole 3 4.0 22:48:47 10° N 22:53:16 67° ENE 22:53:16 67° ENE
Cosmos 1825 Rocket 4.4 22:54:38 45° NE 22:54:38 45° NE 22:58:07 10° NNE
Meteor 1-27 4.3 22:50:36 10° N 22:56:06 59° ENE 22:56:32 57° E
USA 215 3.1 22:49:42 10° NE 22:56:16 90° NNW 22:58:44 42° SW
USA 307 4.3 23:06:51 32° NE 23:06:51 32° NE 23:09:12 10° NE
Cosmos 1869 4.5 23:05:46 10° N 23:08:45 40° NE 23:08:45 40° NE
ATLAS 5 CENTAUR R/B 3.5 23:13:05 18° ENE 23:13:05 18° ENE 23:14:30 10° NE
SL-16 R/B 3.7 23:08:29 20° WSW 23:11:22 30° WNW 23:16:20 10° N
Cosmos 1898 Rocket 3.9 23:07:58 10° N 23:13:03 52° ENE 23:13:23 51° E
Cosmos 405 Rocket 4.4 23:16:45 28° NE 23:16:45 28° NE 23:18:43 10° NNE
GP-B 3.5 23:11:16 10° N 23:15:02 62° NNW 23:15:02 62° NNW
ALOS 2 3.4 23:21:22 44° WNW 23:21:22 44° WNW 23:24:48 10° NNW
USA 308 3.9 23:22:32 43° NE 23:22:32 43° NE 23:25:29 10° NE
Cosmos 2369 Rocket 2.1 23:15:34 10° NNW 23:21:19 80° ENE 23:21:44 74° ESE
Cosmos 1953 Rocket 4.1 23:22:51 54° NE 23:22:51 54° NE 23:26:24 10° NNE
Cosmos-2242 3.6 23:19:33 10° NNW 23:23:04 53° NW 23:23:04 53° NW
USA 267 4.3 23:21:46 10° E 23:27:50 43° NNE 23:33:55 10° NW
DELTA 2 R/B (1) 3.5 23:22:22 10° W 23:28:35 70° E 23:33:30 10° E
Cosmos 468 Rocket 4.2 23:29:10 61° W 23:29:21 62° WNW 23:34:33 10° NNE
Cosmos 1763 Rocket 3.8 23:35:39 53° WNW 23:35:52 54° WNW 23:40:55 10° N
USA 305 3.7 23:36:40 49° N 23:36:40 49° N 23:40:20 10° NE
Cosmos 2142 Rocket 4.3 23:30:35 10° N 23:36:46 82° W 23:37:27 71° SSW
Cosmos 1408 4.2 23:42:43 32° NNW 23:42:43 32° NNW 23:44:59 10° N
Cosmos 2263 4.0 23:40:52 10° NNW 23:46:34 88° WSW 23:46:47 83° S
Cosmos 1570 Rocket 4.2 23:51:07 60° E 23:51:07 60° E 23:56:03 10° NNE
Cosmos 2221 3.3 23:49:33 10° N 23:53:10 47° NE 23:53:10 47° NE
CZ-2D R/B 3.9 23:51:18 10° NE 23:54:48 18° E 23:55:27 18° ESE
Cosmos 1943 Rocket 3.6 23:50:29 10° NW 23:54:11 25° W 23:54:11 25° W
